| time (UTC) | temp F | wind direction | speed knots | gust knots | rain 1hr in | rain 24hr in | rain mn in | humidity % | barometer mb |
| 20260507002739 | 55 | 74 | 1.7 | 1.7 | 0.00 | 0.00 | 0.00 | 92 | 1012.6 |
| 20260507001239 | 56 | 131 | 2.6 | 3.5 | 0.00 | 0.00 | 0.00 | 90 | 1012.4 |
| 20260506235739 | 56 | 345 | 0.9 | 1.7 | 0.00 | 0.00 | 0.00 | 91 | 1012.7 |
| 20260506234239 | 56 | 257 | 1.7 | 1.7 | 0.00 | 0.00 | 0.00 | 90 | 1012.6 |
| 20260506232739 | 55 | 321 | 0.9 | 1.7 | 0.00 | 0.00 | 0.00 | 91 | 1012.8 |
| 20260506231238 | 55 | 59 | 1.7 | 2.6 | 0.00 | 0.00 | 0.00 | 93 | 1012.6 |
| 20260506225738 | 56 | 163 | 2.6 | 2.6 | 0.00 | 0.00 | 0.00 | 91 | 1012.6 |
| 20260506224238 | 56 | 253 | 0.9 | 0.9 | 0.00 | 0.00 | 0.00 | 90 | 1012.8 |
| 20260506222738 | 55 | 64 | 1.7 | 1.7 | 0.00 | 0.00 | 0.00 | 91 | 1012.6 |
| 20260506221238 | 56 | 121 | 2.6 | 3.5 | 0.00 | 0.00 | 0.00 | 90 | 1012.6 |
| 20260506215737 | 56 | 177 | 1.7 | 1.7 | 0.00 | 0.00 | 1.43 | 90 | 1012.9 |
| 20260506214237 | 56 | 248 | 0.9 | 1.7 | 0.00 | 0.00 | 1.43 | 90 | 1012.7 |
| 20260506212737 | 56 | 197 | 3.5 | 5.2 | 0.00 | 0.00 | 1.43 | 91 | 1012.8 |
| 20260506211236 | 57 | 259 | 1.7 | 1.7 | 0.00 | 0.00 | 1.43 | 90 | 1012.6 |
| 20260506205736 | 56 | 269 | 0.0 | 0.0 | 0.00 | 0.00 | 1.43 | 92 | 1012.8 |
| 20260506204235 | 57 | 54 | 1.7 | 2.6 | 0.00 | 0.00 | 1.43 | 90 | 1012.7 |
| 20260506202735 | 57 | 263 | 0.0 | 0.0 | 0.00 | 0.00 | 1.43 | 92 | 1012.4 |
| 20260506201235 | 57 | 52 | 2.6 | 3.5 | 0.00 | 0.00 | 1.43 | 93 | 1012.3 |
| 20260506195735 | 57 | 253 | 0.9 | 1.7 | 0.00 | 0.00 | 1.43 | 92 | 1012.2 |
| 20260506194234 | 57 | 241 | 0.0 | 0.0 | 0.00 | 0.00 | 1.43 | 93 | 1012.1 |
| 20260506192734 | 57 | 267 | 0.9 | 2.6 | 0.00 | 0.00 | 1.43 | 93 | 1011.8 |
| 20260506191233 | 57 | 145 | 1.7 | 2.6 | 0.00 | 0.00 | 1.43 | 93 | 1011.5 |
| 20260506185733 | 57 | 248 | 1.7 | 2.6 | 0.00 | 0.00 | 1.43 | 93 | 1011.4 |
| 20260506184232 | 57 | 212 | 2.6 | 5.2 | 0.00 | 0.00 | 1.43 | 92 | 1011.3 |
| 20260506182732 | 57 | 228 | 1.7 | 2.6 | 0.00 | 0.00 | 1.43 | 93 | 1011.2 |
| 20260506181232 | 57 | 192 | 3.5 | 4.3 | 0.00 | 0.00 | 1.43 | 92 | 1010.8 |
| 20260506175731 | 57 | 207 | 4.3 | 6.1 | 0.00 | 0.00 | 1.43 | 92 | 1010.9 |
| 20260506174231 | 58 | 130 | 7.8 | 10.4 | 0.00 | 0.00 | 1.43 | 90 | 1010.8 |
| 20260506172731 | 58 | 196 | 6.1 | 7.8 | 0.00 | 0.00 | 1.43 | 89 | 1010.7 |
| 20260506171231 | 59 | 206 | 6.1 | 8.7 | 0.00 | 0.00 | 1.43 | 89 | 1010.6 |
| 20260506165731 | 59 | 200 | 4.3 | 5.2 | 0.00 | 0.00 | 1.43 | 89 | 1010.6 |
| 20260506164231 | 59 | 223 | 7.0 | 8.7 | 0.00 | 0.00 | 1.43 | 89 | 1010.5 |
| 20260506162730 | 60 | 177 | 7.8 | 9.6 | 0.00 | 0.00 | 1.43 | 87 | 1010.5 |
| 20260506161230 | 62 | 211 | 3.5 | 4.3 | 0.00 | 0.00 | 1.43 | 86 | 1010.5 |
| 20260506155730 | 60 | 207 | 7.0 | 9.6 | 0.00 | 0.00 | 1.43 | 92 | 1010.3 |
| 20260506154230 | 60 | 197 | 7.0 | 8.7 | 0.00 | 0.00 | 1.43 | 91 | 1010.5 |
| 20260506152729 | 60 | 215 | 5.2 | 7.0 | 0.00 | 0.00 | 1.43 | 93 | 1010.6 |
| 20260506151229 | 60 | 225 | 5.2 | 7.0 | 0.00 | 0.00 | 1.43 | 92 | 1010.3 |
| 20260506145729 | 63 | 216 | 7.8 | 12.2 | 0.00 | 0.00 | 1.43 | 86 | 1010.4 |
| 20260506144228 | 64 | 193 | 7.0 | 9.6 | 0.00 | 0.00 | 1.43 | 87 | 1010.3 |
| 20260506142728 | 62 | 234 | 5.2 | 6.1 | 0.00 | 0.00 | 1.43 | 89 | 1010.2 |
| 20260506141228 | 64 | 185 | 4.3 | 6.1 | 0.00 | 0.00 | 1.43 | 86 | 1010.1 |
| 20260506135728 | 63 | 202 | 7.0 | 10.4 | 0.00 | 0.00 | 1.43 | 88 | 1010.2 |
| 20260506134227 | 63 | 184 | 7.0 | 7.8 | 0.00 | 0.00 | 1.43 | 90 | 1010.4 |
| 20260506132727 | 63 | 265 | 6.1 | 7.0 | 0.00 | 0.00 | 1.43 | 91 | 1010.7 |
| 20260506131227 | 61 | 166 | 7.8 | 9.6 | 0.00 | 0.00 | 1.43 | 94 | 1010.4 |
| 20260506125727 | 62 | 193 | 4.3 | 7.8 | 0.00 | 0.00 | 1.43 | 93 | 1010.5 |
| 20260506124226 | 61 | 150 | 5.2 | 8.7 | 0.00 | 0.00 | 1.43 | 92 | 1010.6 |
| 20260506122726 | 62 | 214 | 7.8 | 9.6 | 0.00 | 0.00 | 1.43 | 90 | 1010.6 |
| 20260506121226 | 62 | 188 | 6.1 | 7.8 | 0.00 | 0.00 | 1.43 | 91 | 1010.4 |
| 20260506115725 | 63 | 163 | 7.0 | 7.8 | 0.00 | 0.00 | 1.43 | 86 | 1010.4 |
| 20260506114225 | 62 | 159 | 4.3 | 7.8 | 0.00 | 0.00 | 1.43 | 91 | 1010.4 |
| 20260506112725 | 63 | 175 | 7.8 | 9.6 | 0.00 | 0.00 | 1.43 | 88 | 1010.3 |
| 20260506111224 | 62 | 225 | 5.2 | 6.1 | 0.00 | 0.00 | 1.43 | 92 | 1010.3 |
| 20260506105724 | 60 | 209 | 8.7 | 9.6 | 0.00 | 0.00 | 1.43 | 95 | 1010.5 |
| 20260506104223 | 59 | 172 | 7.0 | 8.7 | 0.00 | 0.00 | 1.43 | 99 | 1010.1 |
| 20260506102723 | 58 | 212 | 7.8 | 9.6 | 0.00 | 0.00 | 1.43 | 99 | 1010.3 |
| 20260506101223 | 59 | 222 | 9.6 | 13.0 | 0.00 | 0.00 | 1.43 | 99 | 1010.0 |
| 20260506095722 | 59 | 201 | 13.9 | 16.5 | 0.00 | 0.00 | 1.43 | 99 | 1009.7 |
| 20260506094222 | 59 | 205 | 12.2 | 15.6 | 0.00 | 0.00 | 1.43 | 99 | 1009.7 |
| 20260506092722 | 60 | 229 | 16.5 | 18.2 | 0.00 | 0.00 | 1.43 | 99 | 1009.4 |
| 20260506091221 | 60 | 223 | 10.4 | 15.6 | 0.00 | 0.00 | 1.43 | 99 | 1009.3 |
| 20260506085721 | 60 | 206 | 13.0 | 14.8 | 0.00 | 0.00 | 1.43 | 99 | 1009.4 |
| 20260506084221 | 59 | 209 | 13.0 | 16.5 | 0.05 | 0.00 | 1.43 | 99 | 1009.2 |
| 20260506082720 | 59 | 220 | 17.4 | 21.7 | 0.00 | 0.00 | 1.41 | 99 | 1008.9 |
| 20260506081220 | 59 | 232 | 19.1 | 22.6 | 0.00 | 0.00 | 1.41 | 99 | 1008.7 |
| 20260506072719 | 59 | 235 | 13.9 | 17.4 | 0.00 | 0.00 | 1.41 | 99 | 1009.0 |
| 20260506071218 | 59 | 75 | 8.7 | 11.3 | 0.07 | 0.00 | 1.41 | 99 | 1008.9 |
| 20260506061217 | 57 | 204 | 7.0 | 7.8 | 0.05 | 0.00 | 1.40 | 99 | 1008.7 |
| 20260506051215 | 54 | 23 | 4.3 | 5.2 | 0.00 | 0.00 | 1.38 | 99 | 1008.5 |
| 20260506041311 | 54 | 354 | 5.2 | 7.0 | 0.00 | 0.00 | 1.13 | 99 | 1009.0 |
| 20260506035811 | 54 | 345 | 2.6 | 3.5 | 0.00 | 0.00 | 1.13 | 99 | 1009.2 |
| 20260506034311 | 55 | 339 | 1.7 | 2.6 | 0.00 | 0.00 | 1.13 | 99 | 1009.3 |
| 20260506032811 | 55 | 91 | 2.6 | 3.5 | 0.00 | 0.00 | 1.13 | 99 | 1009.4 |
| 20260506031310 | 55 | 267 | 0.0 | 0.0 | 0.07 | 0.00 | 1.13 | 99 | 1009.4 |
| 20260506030030 | 55 | 287 | 7.8 | 9.6 | 1.98 | 0.00 | 0.98 | 99 | 1009.2 |
| 20260506024310 | 54 | 283 | 6.1 | 7.0 | 0.71 | 0.00 | 0.56 | 99 | 1009.1 |
| 20260506022809 | 55 | 328 | 3.5 | 4.3 | 0.07 | 0.00 | 0.41 | 99 | 1008.9 |
| 20260506021309 | 55 | 101 | 2.6 | 4.3 | 0.31 | 0.00 | 0.39 | 99 | 1009.1 |
| 20260506015809 | 55 | 79 | 3.5 | 4.3 | 0.12 | 0.00 | 0.31 | 99 | 1009.8 |
| 20260506014308 | 55 | 52 | 4.3 | 5.2 | 0.05 | 0.00 | 0.27 | 99 | 1009.8 |
| 20260506012808 | 55 | 33 | 4.3 | 5.2 | 0.07 | 0.00 | 0.26 | 99 | 1010.1 |
| 20260506011308 | 54 | 23 | 4.3 | 5.2 | 0.00 | 0.00 | 0.24 | 99 | 1010.1 |
| 20260506005807 | 55 | 50 | 2.6 | 3.5 | 0.00 | 0.00 | 0.24 | 99 | 1010.3 |
| 20260506004307 | 55 | 26 | 2.6 | 3.5 | 0.00 | 0.00 | 0.24 | 99 | 1010.5 |